Reidsville, NC

8:25 PM EDT on June 27, 2017 (GMT -0400)
Reidsville

Weather History for KSIF - January, 2013

Change the Weather History Date:

Friday, January 4, 2013

  Actual Average (KGSO) Record (KGSO)
Temperature  
Mean Temperature 35 °F -  
Max Temperature 49 °F 48 °F 74 °F (2005)
Min Temperature 21 °F 29 °F 3 °F (1918)
Degree Days  
Heating Degree Days 30    
Moisture  
Dew Point 21 °F    
Average Humidity 60    
Maximum Humidity 96    
Minimum Humidity 29    
Precipitation  
Precipitation 0.00 in - - ()
Sea Level Pressure  
Sea Level Pressure 30.26 in    
Wind  
Wind Speed 4 mph (West)    
Max Wind Speed 10 mph    
Max Gust Speed 17 mph    
Visibility 10 miles    
Events      
Averages and records for this station are not official NWS values.
T = Trace of Precipitation, MM = Missing Value Source: NWS Daily Summary

Daily Weather History Graph

Daily Weather History Graph

Search for Another Location

Airport or City:

Trip Planner

Search our weather history database for the weather conditions in past years. The results will help you decide how hot, cold, wet, or windy it might be!

Date:

Astronomy

Jan. 04, 2013 Rise Set
Actual Time 7:31 AM EST 5:17 PM EST
Civil Twilight 7:03 AM EST 5:46 PM EST
Nautical Twilight 6:30 AM EST 6:18 PM EST
Astronomical Twilight 5:59 AM EST 6:49 PM EST
Moon No Moon Rise 11:26 AM EST (1/4)
Length of Visible Light 10h 43m
Length of Day
9h 46m
Waning Gibbous, 55% of the Moon is Illuminated
Jan 4
Waning Gibbous
Jan 4
Last Quarter
Jan 11
New
Jan 18
First Quarter
Jan 26
Full

Hourly Weather History & Observations

Time (EST) Temp. Windchill Dew Point Humidity Pressure Visibility Wind Dir Wind Speed Gust Speed Precip Events Conditions
12:15 AM 24.8 °F - 23.9 °F 96% 30.25 in 7.0 mi Calm Calm - N/A   Clear
12:35 AM 23.7 °F - 22.8 °F 96% 30.25 in 7.0 mi Calm Calm - N/A   Clear
12:55 AM 23.0 °F - 22.1 °F 96% 30.24 in 7.0 mi Calm Calm - N/A   Clear
1:15 AM 21.9 °F - 21.0 °F 96% 30.24 in 7.0 mi Calm Calm - N/A   Clear
1:35 AM 23.0 °F - 22.1 °F 96% 30.25 in 10.0 mi Calm Calm - N/A   Clear
1:55 AM 26.8 °F 21.4 °F 24.6 °F 92% 30.26 in 10.0 mi WSW 4.6 mph - N/A   Clear
2:15 AM 26.4 °F - 23.5 °F 89% 30.27 in 10.0 mi Calm Calm - N/A   Clear
2:35 AM 28.8 °F 25.0 °F 23.7 °F 81% 30.27 in 10.0 mi WNW 3.5 mph - N/A   Clear
2:55 AM 27.1 °F 21.8 °F 23.2 °F 85% 30.27 in 10.0 mi SW 4.6 mph - N/A   Clear
3:15 AM 26.1 °F 20.5 °F 22.6 °F 87% 30.27 in 10.0 mi WSW 4.6 mph - N/A   Clear
3:35 AM 23.9 °F - 21.7 °F 91% 30.26 in 10.0 mi Calm Calm - N/A   Clear
3:55 AM 24.3 °F - 21.7 °F 90% 30.26 in 10.0 mi Calm Calm - N/A   Clear
4:15 AM 23.9 °F 19.5 °F 21.6 °F 91% 30.26 in 10.0 mi West 3.5 mph - N/A   Clear
7:15 AM 21.2 °F - 19.4 °F 93% 30.27 in 10.0 mi Calm Calm - N/A   Clear
7:35 AM 21.0 °F - 19.4 °F 93% 30.27 in 10.0 mi Calm Calm - N/A   Clear
8:15 AM 24.4 °F - 22.5 °F 92% 30.28 in 10.0 mi Calm Calm - N/A   Clear
8:35 AM 28.4 °F - 24.8 °F 86% 30.29 in 10.0 mi Calm Calm - N/A   Clear
8:55 AM 31.5 °F 26.8 °F 24.8 °F 76% 30.30 in 10.0 mi SW 4.6 mph - N/A   Clear
9:15 AM 32.5 °F 28.1 °F 25.3 °F 75% 30.30 in 10.0 mi WSW 4.6 mph - N/A   Clear
9:35 AM 34.7 °F 28.8 °F 25.0 °F 68% 30.30 in 10.0 mi West 6.9 mph - N/A   Clear
9:55 AM 36.0 °F 30.3 °F 25.0 °F 64% 30.31 in 10.0 mi West 6.9 mph - N/A   Clear
10:15 AM 37.6 °F 30.5 °F 24.4 °F 59% 30.32 in 10.0 mi West 10.4 mph - N/A   Clear
10:35 AM 39.0 °F 33.4 °F 23.5 °F 54% 30.31 in 10.0 mi WNW 8.1 mph 16.1 mph N/A   Clear
10:55 AM 40.3 °F 34.4 °F 22.8 °F 50% 30.32 in 10.0 mi West 9.2 mph - N/A   Clear
11:15 AM 41.5 °F 36.4 °F 21.4 °F 45% 30.31 in 10.0 mi West 8.1 mph - N/A   Clear
11:35 AM 42.6 °F 36.8 °F 21.6 °F 43% 30.29 in 10.0 mi WNW 10.4 mph 17.3 mph N/A   Clear
11:55 AM 43.5 °F 38.9 °F 21.7 °F 42% 30.27 in 10.0 mi West 8.1 mph - N/A   Clear
12:15 PM 44.2 °F 39.2 °F 20.8 °F 39% 30.26 in 10.0 mi WSW 9.2 mph - N/A   Clear
12:35 PM 45.5 °F 41.8 °F 20.1 °F 36% 30.24 in 10.0 mi West 6.9 mph - N/A   Clear
12:55 PM 46.8 °F - 19.6 °F 34% 30.24 in 10.0 mi WNW 6.9 mph - N/A   Clear
1:15 PM 47.3 °F - 19.2 °F 33% 30.22 in 10.0 mi WNW 8.1 mph - N/A   Clear
1:35 PM 47.5 °F - 18.1 °F 31% 30.21 in 10.0 mi WNW 6.9 mph - N/A   Clear
1:55 PM 48.2 °F - 18.3 °F 31% 30.21 in 10.0 mi West 10.4 mph 16.1 mph N/A   Clear
2:15 PM 48.7 °F - 18.9 °F 31% 30.20 in 10.0 mi West 6.9 mph 16.1 mph N/A   Clear
2:35 PM 49.1 °F - 18.5 °F 30% 30.20 in 10.0 mi West 10.4 mph - N/A   Clear
2:55 PM 49.5 °F - 17.8 °F 29% 30.19 in 10.0 mi WNW 9.2 mph - N/A   Clear
3:15 PM 47.5 °F - 17.8 °F 31% 30.19 in 10.0 mi WNW 9.2 mph - N/A   Clear
3:35 PM 47.7 °F - 18.1 °F 31% 30.20 in 10.0 mi West 9.2 mph - N/A   Scattered Clouds
3:55 PM 47.3 °F - 18.3 °F 32% 30.21 in 10.0 mi West 4.6 mph - N/A   Overcast
4:15 PM 46.6 °F - 19.0 °F 33% 30.21 in 10.0 mi West 6.9 mph - N/A   Overcast
4:35 PM 45.9 °F 42.9 °F 18.7 °F 34% 30.21 in 10.0 mi WNW 5.8 mph - N/A   Overcast
4:55 PM 45.5 °F 41.8 °F 18.9 °F 35% 30.21 in 10.0 mi WNW 6.9 mph - N/A   Mostly Cloudy
5:15 PM 44.8 °F 40.4 °F 19.2 °F 36% 30.23 in 10.0 mi WNW 8.1 mph - N/A   Mostly Cloudy
5:35 PM 43.7 °F 39.7 °F 18.9 °F 37% 30.24 in 10.0 mi WNW 6.9 mph - N/A   Scattered Clouds
5:55 PM 42.8 °F 37.5 °F 18.9 °F 38% 30.23 in 10.0 mi WNW 9.2 mph - N/A   Clear
6:35 PM 40.3 °F 34.4 °F 19.0 °F 43% 30.26 in 10.0 mi West 9.2 mph - N/A   Clear
6:55 PM 39.4 °F 35.2 °F 19.0 °F 44% 30.27 in 10.0 mi West 5.8 mph - N/A   Clear
7:15 PM 38.7 °F 33.6 °F 19.4 °F 46% 30.28 in 10.0 mi West 6.9 mph - N/A   Clear
7:35 PM 38.3 °F 33.9 °F 20.1 °F 48% 30.29 in 10.0 mi West 5.8 mph - N/A   Clear
7:55 PM 37.6 °F 34.0 °F 20.3 °F 50% 30.30 in 10.0 mi West 4.6 mph - N/A   Clear
8:15 PM 36.1 °F - 20.3 °F 53% 30.31 in 10.0 mi Calm Calm - N/A   Clear
8:35 PM 32.0 °F - 20.3 °F 62% 30.30 in 10.0 mi Calm Calm - N/A   Clear
8:55 PM 29.8 °F - 21.0 °F 70% 30.31 in 10.0 mi Calm Calm - N/A   Clear
9:15 PM 34.2 °F 31.2 °F 20.5 °F 57% 30.31 in 10.0 mi West 3.5 mph - N/A   Clear
9:35 PM 29.7 °F - 20.3 °F 68% 30.30 in 10.0 mi Calm Calm - N/A   Clear
9:55 PM 29.5 °F 25.9 °F 21.2 °F 71% 30.30 in 10.0 mi WSW 3.5 mph - N/A   Clear
10:15 PM 31.8 °F 28.5 °F 21.0 °F 64% 30.30 in 10.0 mi SSW 3.5 mph - N/A   Clear
10:35 PM 31.6 °F 28.3 °F 21.2 °F 65% 30.30 in 10.0 mi SSW 3.5 mph - N/A   Clear
10:55 PM 31.3 °F 27.9 °F 21.2 °F 66% 30.30 in 10.0 mi SSW 3.5 mph - N/A   Clear
11:15 PM 31.8 °F 27.3 °F 21.6 °F 66% 30.30 in 10.0 mi SW 4.6 mph - N/A   Clear
11:55 PM 32.5 °F 27.1 °F 21.2 °F 63% 30.29 in 10.0 mi West 5.8 mph - N/A   Clear